• In Netherlands
  • List of Countries
  • For 7 days
  • Water Temperature
  • Satellite Maps
  • Weather Map
  • Weather Widgets
  • user-avatar
    Login

    Hourly Weather Orsha

    Today, 18 August, Friday

    Time Temperature Precipitation Wind Pressure Humidity
    00:00 +19°C° 0.1 mm 2 mps 749 mmHg 86%
    01:00 +19°C° 0.1 mm 2 mps 749 mmHg 88%
    02:00 +18°C° 0 mm 2 mps 749 mmHg 88%
    03:00 +18°C° 0 mm 2 mps 749 mmHg 88%
    04:00 +18°C° 0 mm 2 mps 749 mmHg 89%
    05:00 +18°C° 0 mm 3 mps 749 mmHg 89%
    06:00 +19°C° 0 mm 3 mps 749 mmHg 84%
    07:00 +21°C° 0 mm 3 mps 749 mmHg 79%
    08:00 +22°C° 0 mm 3 mps 750 mmHg 74%
    09:00 +25°C° 0 mm 4 mps 750 mmHg 68%
    10:00 +27°C° 0 mm 4 mps 749 mmHg 62%
    11:00 +28°C° 0 mm 4 mps 749 mmHg 56%
    12:00 +29°C° 0 mm 4 mps 749 mmHg 53%
    13:00 +29°C° 0 mm 4 mps 749 mmHg 50%
    14:00 +30°C° 0 mm 4 mps 749 mmHg 47%
    15:00 +30°C° 0 mm 4 mps 749 mmHg 50%
    16:00 +29°C° 0 mm 3 mps 748 mmHg 54%
    17:00 +29°C° 0 mm 3 mps 748 mmHg 57%
    18:00 +27°C° 0 mm 3 mps 748 mmHg 59%
    19:00 +25°C° 0 mm 3 mps 748 mmHg 61%
    20:00 +22°C° 0 mm 3 mps 748 mmHg 63%
    21:00 +22°C° 0 mm 3 mps 748 mmHg 62%
    22:00 +21°C° 0 mm 3 mps 748 mmHg 62%
    23:00 +20°C° 0 mm 3 mps 748 mmHg 62%

    Tomorrow, 19 August, Saturday

    Time Temperature Precipitation Wind Pressure Humidity
    00:00 +20°C° 0 mm 3 mps 748 mmHg 64%
    01:00 +19°C° 0 mm 3 mps 748 mmHg 67%
    02:00 +19°C° 0 mm 3 mps 748 mmHg 70%
    03:00 +19°C° 0 mm 3 mps 748 mmHg 73%
    04:00 +18°C° 0 mm 3 mps 748 mmHg 75%
    05:00 +18°C° 0 mm 3 mps 748 mmHg 78%
    06:00 +20°C° 0 mm 3 mps 748 mmHg 75%
    07:00 +21°C° 0 mm 3 mps 748 mmHg 72%
    08:00 +23°C° 0 mm 4 mps 748 mmHg 69%
    09:00 +25°C° 0 mm 4 mps 748 mmHg 63%
    10:00 +27°C° 0 mm 4 mps 748 mmHg 58%
    11:00 +29°C° 0 mm 4 mps 748 mmHg 52%
    12:00 +30°C° 0 mm 4 mps 748 mmHg 49%
    13:00 +30°C° 0 mm 4 mps 748 mmHg 45%
    14:00 +32°C° 0 mm 4 mps 748 mmHg 42%
    15:00 +32°C° 0 mm 4 mps 748 mmHg 46%
    16:00 +30°C° 0 mm 3 mps 747 mmHg 49%
    17:00 +30°C° 0 mm 3 mps 747 mmHg 53%
    18:00 +28°C° 0 mm 3 mps 747 mmHg 55%
    19:00 +26°C° 0 mm 3 mps 747 mmHg 57%
    20:00 +24°C° 0 mm 3 mps 747 mmHg 59%
    21:00 +23°C° 0 mm 4 mps 747 mmHg 56%
    22:00 +23°C° 0 mm 4 mps 747 mmHg 53%
    23:00 +23°C° 0 mm 4 mps 747 mmHg 50%

    Day after tomorrow, 20 August, Sunday

    Time Temperature Precipitation Wind Pressure Humidity
    00:00 +23°C° 0 mm 5 mps 747 mmHg 49%
    01:00 +23°C° 0 mm 5 mps 747 mmHg 48%
    02:00 +23°C° 0 mm 5 mps 747 mmHg 47%
    03:00 +23°C° 0 mm 5 mps 747 mmHg 47%
    04:00 +22°C° 0 mm 5 mps 747 mmHg 47%
    05:00 +22°C° 0 mm 5 mps 747 mmHg 48%
    06:00 +22°C° 0 mm 5 mps 747 mmHg 52%
    07:00 +22°C° 0 mm 5 mps 747 mmHg 56%
    08:00 +22°C° 0 mm 5 mps 747 mmHg 60%
    09:00 +24°C° 0 mm 6 mps 747 mmHg 58%
    10:00 +26°C° 0 mm 6 mps 747 mmHg 55%
    11:00 +27°C° 0 mm 6 mps 747 mmHg 53%
    12:00 +28°C° 0 mm 6 mps 747 mmHg 53%
    13:00 +28°C° 0 mm 6 mps 747 mmHg 53%
    14:00 +28°C° 0 mm 6 mps 747 mmHg 53%
    15:00 +28°C° 0 mm 5 mps 746 mmHg 53%
    16:00 +28°C° 0 mm 5 mps 746 mmHg 54%
    17:00 +28°C° 0 mm 5 mps 746 mmHg 55%
    18:00 +27°C° 0 mm 5 mps 746 mmHg 55%
    19:00 +26°C° 0 mm 5 mps 746 mmHg 55%
    20:00 +23°C° 0 mm 6 mps 746 mmHg 55%
    21:00 +23°C° 0 mm 5 mps 746 mmHg 56%
    22:00 +22°C° 0 mm 5 mps 746 mmHg 56%
    23:00 +22°C° 0 mm 5 mps 746 mmHg 57%

    21 August, Monday

    Time Temperature Precipitation Wind Pressure Humidity
    00:00 +21°C° 0 mm 4 mps 746 mmHg 60%
    01:00 +21°C° 0 mm 4 mps 745 mmHg 63%
    02:00 +20°C° 0 mm 4 mps 745 mmHg 66%
    03:00 +20°C° 0 mm 3 mps 745 mmHg 68%
    04:00 +19°C° 0 mm 3 mps 744 mmHg 70%
    05:00 +19°C° 0 mm 3 mps 744 mmHg 72%
    06:00 +19°C° 0 mm 3 mps 744 mmHg 72%
    07:00 +20°C° 0 mm 4 mps 744 mmHg 71%
    08:00 +21°C° 0 mm 5 mps 744 mmHg 70%
    09:00 +22°C° 0 mm 4 mps 743 mmHg 69%
    10:00 +22°C° 0 mm 4 mps 743 mmHg 68%
    11:00 +23°C° 0 mm 4 mps 743 mmHg 67%
    12:00 +25°C° 0.1 mm 4 mps 743 mmHg 63%
    13:00 +27°C° 0.1 mm 4 mps 743 mmHg 59%
    14:00 +28°C° 0.1 mm 4 mps 742 mmHg 55%
    15:00 +27°C° 0.2 mm 4 mps 742 mmHg 60%
    16:00 +26°C° 0.2 mm 4 mps 742 mmHg 65%
    17:00 +25°C° 0.2 mm 3 mps 742 mmHg 70%
    18:00 +22°C° 1.3 mm 4 mps 741 mmHg 78%
    19:00 +20°C° 1.3 mm 4 mps 741 mmHg 85%
    20:00 +18°C° 1.3 mm 4 mps 741 mmHg 92%
    21:00 +17°C° 0.9 mm 4 mps 741 mmHg 93%
    22:00 +17°C° 0.9 mm 3 mps 741 mmHg 95%
    23:00 +16°C° 0.9 mm 3 mps 741 mmHg 96%

    22 August, Tuesday

    Time Temperature Precipitation Wind Pressure Humidity
    00:00 +16°C° 0.5 mm 3 mps 741 mmHg 96%
    01:00 +16°C° 0.5 mm 3 mps 740 mmHg 96%
    02:00 +16°C° 0.5 mm 3 mps 740 mmHg 96%
    03:00 +16°C° 0.2 mm 3 mps 740 mmHg 96%
    04:00 +14°C° 0.2 mm 3 mps 740 mmHg 96%
    05:00 +14°C° 0.2 mm 4 mps 739 mmHg 96%
    06:00 +15°C° 1 mm 4 mps 739 mmHg 95%
    07:00 +15°C° 1 mm 4 mps 739 mmHg 95%
    08:00 +15°C° 1 mm 4 mps 739 mmHg 94%
    09:00 +15°C° 0.5 mm 4 mps 739 mmHg 93%
    10:00 +17°C° 0.5 mm 3 mps 739 mmHg 92%
    11:00 +17°C° 0.5 mm 3 mps 739 mmHg 91%
    12:00 +17°C° 0.3 mm 3 mps 739 mmHg 91%
    13:00 +17°C° 0.3 mm 4 mps 739 mmHg 91%
    14:00 +17°C° 0.3 mm 4 mps 739 mmHg 91%
    15:00 +17°C° 0.1 mm 4 mps 739 mmHg 91%
    16:00 +17°C° 0.1 mm 4 mps 739 mmHg 90%
    17:00 +17°C° 0.1 mm 4 mps 739 mmHg 90%
    18:00 +15°C° 0 mm 4 mps 739 mmHg 91%
    19:00 +14°C° 0 mm 3 mps 739 mmHg 92%
    20:00 +14°C° 0 mm 3 mps 739 mmHg 94%
    21:00 +14°C° 0 mm 3 mps 739 mmHg 94%
    22:00 +14°C° 0 mm 3 mps 739 mmHg 94%
    23:00 +14°C° 0 mm 3 mps 739 mmHg 94%

    23 August, Wednesday

    Time Temperature Precipitation Wind Pressure Humidity
    00:00 +14°C° 0.1 mm 4 mps 739 mmHg 94%
    01:00 +14°C° 0.1 mm 4 mps 738 mmHg 94%
    02:00 +14°C° 0.1 mm 4 mps 738 mmHg 94%
    03:00 +14°C° 0.3 mm 4 mps 738 mmHg 94%
    04:00 +14°C° 0.3 mm 4 mps 738 mmHg 95%
    05:00 +14°C° 0.3 mm 4 mps 738 mmHg 95%
    06:00 +14°C° 0.4 mm 4 mps 738 mmHg 95%
    07:00 +14°C° 0.4 mm 4 mps 738 mmHg 95%
    08:00 +15°C° 0.4 mm 4 mps 739 mmHg 94%
    09:00 +15°C° 0.3 mm 4 mps 739 mmHg 93%
    10:00 +15°C° 0.3 mm 5 mps 739 mmHg 92%
    11:00 +16°C° 0.3 mm 5 mps 739 mmHg 91%
    12:00 +16°C° 0.4 mm 5 mps 739 mmHg 91%
    13:00 +16°C° 0.4 mm 5 mps 739 mmHg 91%
    14:00 +16°C° 0.4 mm 5 mps 739 mmHg 90%
    15:00 +16°C° 0.3 mm 6 mps 739 mmHg 89%
    16:00 +16°C° 0.3 mm 6 mps 739 mmHg 87%
    17:00 +16°C° 0.3 mm 6 mps 739 mmHg 86%
    18:00 +16°C° 0.6 mm 6 mps 739 mmHg 87%
    19:00 +15°C° 0.6 mm 5 mps 739 mmHg 88%
    20:00 +15°C° 0.6 mm 5 mps 739 mmHg 88%
    21:00 +14°C° 0.7 mm 5 mps 739 mmHg 87%
    22:00 +14°C° 0.7 mm 6 mps 739 mmHg 86%
    23:00 +14°C° 0.7 mm 6 mps 739 mmHg 85%
    Show more